Theta_e
314 315 315 315 316 317 317 317 318 318 319 319 320 316 315 315 316 300 295 308 313 323 321 304 303 302 300 296 296 296 285 282 282 285 281 285 283 286 286 285 285 286 281 286 289
314 314 315 315 315 316 316 317 317 317 317 318 318 318 314 314 303 294 310 317 318 322 307 300 298 299 292 292 292 288 282 282 286 286 284 284 284 278 281 279 280 282 285 284 286
313 313 314 314 314 315 316 316 316 316 317 318 317 318 316 309 297 294 314 315 317 313 305 303 301 297 291 291 288 286 283 286 286 287 286 283 282 280 281 279 278 280 281 286 284
312 312 313 313 313 314 315 316 315 316 314 316 317 317 316 301 284 295 313 313 315 308 304 301 298 293 288 286 290 283 288 289 288 290 287 284 281 274 279 279 284 283 285 285 285
311 311 311 312 312 313 314 315 315 315 315 316 315 317 302 290 289 297 309 305 300 302 300 299 295 293 288 289 289 285 285 288 288 288 286 285 278 279 280 281 284 283 284 284 283
310 311 311 311 312 313 313 314 314 314 314 315 315 315 296 285 296 296 295 297 297 299 299 298 296 295 291 289 287 287 287 286 288 288 287 283 278 282 283 286 284 285 285 286 286
310 310 310 311 312 312 313 313 313 313 312 312 315 301 290 287 294 294 295 294 296 297 297 299 298 295 293 288 291 289 285 286 287 289 288 288 283 280 286 286 285 286 286 287 287
309 309 310 311 311 312 312 311 311 312 313 313 314 296 286 295 292 295 294 294 295 296 296 297 299 295 292 292 291 287 286 279 286 289 288 286 279 290 288 285 285 286 287 288 288
309 310 310 311 311 311 312 311 311 311 313 312 295 293 285 300 292 294 292 290 292 294 295 297 295 292 290 287 281 281 276 278 281 285 285 283 278 287 287 286 286 287 287 288 287
310 310 310 310 312 312 313 312 310 307 300 298 295 291 290 288 292 292 292 293 291 291 293 291 288 282 280 280 274 276 276 279 278 281 282 280 280 283 286 286 285 286 287 287 288
309 309 309 310 311 313 304 298 292 294 289 284 285 287 288 291 293 292 292 290 292 290 284 287 280 276 278 280 282 281 279 277 281 283 282 280 280 283 284 285 284 285 285 286 288
309 309 309 309 310 312 298 290 289 290 286 289 288 288 290 290 287 291 292 288 288 282 285 284 278 281 283 283 282 280 278 277 280 284 282 281 281 283 284 285 285 286 286 286 287
309 308 308 310 311 299 293 292 298 296 288 287 288 288 287 290 286 286 287 286 283 282 282 279 280 284 283 281 280 279 277 277 277 281 283 280 281 282 283 285 287 287 288 288 287
308 307 308 310 299 293 291 297 299 297 285 288 286 288 290 289 286 288 288 285 284 280 280 280 282 281 280 280 280 277 280 280 280 278 274 280 276 280 281 282 286 287 287 288 288
308 306 307 309 295 292 295 298 296 295 276 287 286 291 289 286 285 287 287 287 281 281 279 278 278 278 280 279 280 279 281 280 280 278 277 279 274 282 280 282 283 284 288 288 289
307 306 307 298 295 294 297 296 296 285 275 282 286 284 284 285 285 286 286 287 285 282 280 277 280 279 279 281 281 283 280 280 279 278 273 276 276 279 282 282 285 285 285 289 290
308 305 300 299 294 296 297 296 286 277 284 282 281 283 281 281 283 283 282 281 280 277 280 278 277 278 279 278 281 280 278 271 273 273 274 275 273 280 284 287 286 286 286 286 289
309 304 301 297 297 297 296 289 278 280 282 282 281 281 280 280 281 281 280 280 280 279 274 276 277 277 279 276 275 277 277 273 267 270 273 276 272 282 285 286 286 286 286 286 286
308 297 297 296 298 296 291 278 283 284 286 280 281 278 279 279 278 280 279 279 280 279 276 275 277 276 277 277 277 277 276 276 267 260 266 273 278 285 283 285 285 285 285 284 285
298 299 295 297 297 296 286 285 283 286 285 283 280 283 279 279 278 278 279 282 280 281 280 277 275 276 276 277 277 276 277 273 271 266 264 273 275 278 282 284 284 284 283 285 286
300 298 297 296 296 288 281 280 284 286 286 284 281 280 280 279 279 278 280 281 282 279 280 278 278 276 276 275 275 273 274 274 274 274 267 266 274 281 282 284 284 284 285 285 286
301 292 295 295 285 282 277 281 289 285 285 285 282 283 282 281 280 279 281 282 283 281 278 279 277 271 276 274 276 276 276 276 269 269 272 271 274 287 285 283 283 284 286 290 286
298 295 295 293 286 283 282 283 285 284 285 284 284 285 284 284 286 281 279 280 281 280 279 280 275 269 276 276 275 274 276 278 272 271 270 269 276 284 286 288 289 288 289 290 291
295 287 289 289 287 289 286 285 285 283 283 283 282 283 282 281 283 285 283 281 281 282 287 285 276 276 277 280 277 273 273 273 271 267 276 275 278 283 285 286 287 288 288 289 289
295 288 289 285 285 284 288 286 284 282 282 282 280 282 282 280 282 281 282 282 281 283 281 281 271 272 274 277 276 277 278 277 272 276 272 278 279 282 284 285 286 288 287 285 285
288 286 286 284 285 285 286 284 284 283 282 281 281 283 284 282 284 279 280 281 281 278 278 278 272 269 267 273 276 275 278 278 278 278 277 277 277 284 286 285 284 284 283 282 283
286 287 290 286 284 284 283 285 284 286 285 288 285 283 282 284 286 286 287 286 284 280 276 275 272 271 266 270 268 268 275 278 277 278 278 274 280 282 281 282 282 282 281 282 284
Wind_Speed
12 12 12 12 13 14 15 15 15 14 15 14 12 9 6 9 5 15 19 12 17 24 14 7 15 4 6 6 7 4 7 5 7 5 3 2 1 3 3 5 2 3 3 2 3
12 13 13 14 15 15 16 16 16 15 15 15 13 10 9 10 2 11 13 24 25 23 5 8 11 10 6 7 6 8 5 3 2 2 2 1 3 2 3 3 3 4 3 2 1
13 13 14 15 16 16 17 17 16 15 14 14 13 12 10 6 3 7 19 24 25 21 8 2 4 6 7 6 9 3 9 9 4 6 5 4 3 2 2 6 7 7 3 3 1
13 13 14 14 15 15 15 15 14 14 15 13 14 13 9 2 5 5 19 21 21 12 13 10 9 6 7 8 4 7 2 4 11 10 8 5 4 4 8 7 2 4 3 2 5
11 12 12 12 13 14 15 15 15 14 15 14 15 12 4 8 3 7 14 12 9 10 14 4 12 5 5 5 3 6 3 2 4 1 2 8 6 6 9 8 4 5 6 7 7
12 13 13 13 14 14 14 14 14 12 13 14 16 14 4 8 5 8 9 8 9 8 11 9 5 6 7 7 5 3 5 6 8 6 5 4 4 6 6 6 6 7 9 9 9
12 12 13 14 14 15 15 15 13 12 12 12 12 3 9 2 4 7 8 4 4 4 4 6 8 5 5 3 4 5 3 2 4 4 5 6 4 8 5 11 8 8 8 9 10
12 12 13 14 14 15 15 14 12 11 11 9 10 4 3 2 3 5 6 3 8 3 1 3 3 5 5 5 3 3 3 4 3 5 3 3 8 3 10 11 10 11 10 10 10
14 14 15 15 16 15 14 14 9 8 10 10 4 4 2 1 3 6 2 3 6 3 2 3 2 5 2 2 4 7 3 6 4 3 3 2 8 4 9 9 8 10 10 11 10
15 15 16 16 17 16 15 6 9 8 5 2 4 4 5 6 5 7 4 5 3 5 3 3 6 5 6 9 4 7 7 6 6 1 3 6 15 9 12 11 12 9 9 11 13
15 16 16 16 17 16 8 3 7 6 12 3 2 1 2 8 4 5 4 8 2 4 7 6 10 6 6 4 3 5 5 6 5 2 8 5 11 14 10 11 9 10 10 9 10
15 17 18 17 16 16 4 7 3 3 3 1 1 2 2 3 5 6 11 6 6 5 7 7 5 4 6 5 5 3 3 6 8 5 5 7 16 7 8 9 10 11 10 10 8
16 17 19 15 13 6 6 3 2 3 2 2 1 2 3 4 2 7 7 4 6 6 7 4 1 5 4 5 8 3 4 4 5 12 3 9 7 5 2 3 6 8 7 8 11
14 16 18 20 7 0 4 3 3 2 6 3 3 3 2 2 3 2 3 2 5 3 3 4 2 3 3 4 4 5 1 3 7 6 2 7 6 6 3 5 6 9 10 11 9
13 15 16 11 1 4 2 4 4 3 5 2 2 1 3 3 4 2 2 2 3 3 2 3 5 6 4 3 2 6 3 3 1 3 4 8 5 8 5 6 6 9 11 11 10
11 13 14 5 4 0 4 4 2 10 6 1 2 3 4 2 2 3 4 4 0 3 5 3 1 2 2 3 3 6 4 2 1 2 5 5 5 9 5 5 7 4 6 10 10
9 10 6 2 1 4 2 3 8 6 4 5 0 2 1 3 3 3 3 5 1 5 3 1 1 2 2 4 1 3 5 6 8 8 5 2 4 11 10 8 5 8 9 7 7
7 6 4 2 3 3 2 8 4 4 5 1 2 1 2 3 1 4 4 4 1 2 3 3 7 1 3 3 1 3 2 6 4 2 6 3 6 6 2 7 6 5 5 6 4
7 1 2 4 4 2 7 5 9 7 2 2 1 1 3 0 1 5 2 3 1 0 3 2 4 2 4 3 2 3 2 2 7 2 5 5 9 9 3 7 8 9 8 7 6
2 2 0 5 4 4 7 6 4 1 3 1 3 4 3 3 1 2 2 2 2 3 2 2 4 2 2 2 2 2 1 3 4 2 4 7 6 8 9 7 7 9 6 7 7
2 3 2 5 2 6 5 8 4 1 2 3 3 2 2 2 4 3 4 2 5 1 1 3 4 3 2 4 3 2 1 4 3 5 5 3 8 7 5 7 10 7 8 8 9
2 1 3 3 5 1 4 7 2 4 1 2 3 6 5 2 4 4 7 2 5 1 3 1 5 2 5 2 3 2 4 5 7 7 3 5 9 17 15 6 7 9 12 16 5
3 2 2 2 4 3 4 3 3 5 6 7 7 6 4 5 2 4 2 2 5 2 6 3 2 4 7 3 3 3 4 4 4 3 9 5 10 5 11 20 22 21 17 19 22
3 2 3 4 2 6 5 5 5 1 1 1 4 1 2 3 1 4 2 3 2 1 4 3 2 9 10 8 5 3 3 5 7 5 13 14 32 21 22 21 17 19 21 21 18
3 5 3 5 5 4 6 6 5 5 1 1 1 4 7 4 3 3 3 2 3 1 1 5 7 4 6 6 3 4 6 11 11 17 11 27 23 25 23 21 21 18 14 10 12
6 6 1 2 2 10 7 8 10 3 7 4 5 7 4 7 8 7 4 4 5 2 3 1 3 3 5 5 3 4 11 15 18 15 17 22 26 23 19 12 15 18 12 7 11
1 2 4 8 6 5 6 6 9 8 4 4 9 5 6 9 1 3 3 3 4 6 4 3 3 3 7 3 6 7 8 4 4 7 7 7 10 12 14 16 16 18 8 8 11
Wind_Direction
14 11 5 2 2 3 1 358 350 348 350 347 354 358 328 334 345 18 36 336 336 325 335 351 29 11 15 66 58 360 58 54 8 3 357 94 258 176 231 245 238 218 206 314 336
7 3 355 355 355 360 358 356 349 344 345 345 347 348 331 337 27 39 349 344 338 335 358 64 32 24 30 17 48 74 87 123 229 285 243 133 289 322 321 252 264 285 234 279 34
5 357 354 354 355 355 355 355 352 347 345 339 340 346 337 345 55 351 350 342 342 357 19 33 91 67 57 28 360 75 144 169 193 182 162 185 222 230 252 261 221 213 222 203 294
5 359 356 357 352 350 351 352 348 343 342 337 335 340 328 15 64 335 351 343 341 355 34 23 5 43 68 52 47 80 351 192 177 164 168 194 151 228 200 230 185 225 224 214 202
3 359 354 351 346 343 344 344 344 340 340 336 332 333 23 45 22 315 340 343 344 351 28 62 38 34 49 104 86 91 158 336 356 37 190 148 204 219 240 239 216 237 239 230 232
2 357 352 347 344 342 335 334 336 332 332 332 335 335 35 63 300 332 340 344 10 18 5 26 65 95 76 24 54 108 151 170 191 199 181 217 245 153 265 168 206 225 249 250 244
359 352 346 342 338 332 330 327 325 321 326 319 333 14 59 143 328 341 345 307 6 36 28 357 1 77 126 71 150 144 78 233 233 207 214 191 211 238 180 170 193 221 235 245 241
352 345 343 338 331 327 326 323 318 312 318 310 321 64 93 257 294 334 344 319 354 20 83 304 23 72 55 112 155 221 194 5 192 173 196 102 280 312 159 175 202 208 212 219 224
348 346 343 338 328 321 320 316 304 296 295 301 18 85 16 278 353 306 31 308 295 257 227 300 9 105 74 359 12 7 325 348 348 197 141 175 271 202 168 191 223 217 209 209 213
348 346 342 336 326 316 312 286 308 331 338 313 57 54 11 316 310 326 306 318 321 318 12 14 45 61 16 29 34 324 346 328 303 311 258 238 259 261 197 191 207 221 231 212 206
345 342 341 339 334 326 355 12 20 352 40 89 277 281 330 300 283 336 346 327 312 39 15 2 55 19 327 327 300 272 276 298 305 19 350 260 279 267 199 207 218 217 214 219 231
344 342 340 339 335 331 51 64 61 286 353 346 327 306 308 1 337 340 359 32 18 21 351 25 45 319 301 281 293 17 334 337 284 314 344 309 302 282 186 222 214 210 218 222 209
345 340 336 330 328 40 80 90 306 352 97 39 49 350 311 3 25 311 18 339 40 31 14 91 326 316 331 9 17 47 55 332 260 318 294 321 303 326 21 182 208 224 223 224 215
343 338 337 325 55 297 51 329 331 327 72 328 4 1 334 2 357 306 13 94 35 42 37 72 324 359 346 67 3 338 72 311 315 10 325 19 281 322 341 270 230 234 228 228 228
343 339 338 9 199 55 273 321 320 64 25 303 329 305 315 32 332 2 345 3 91 10 31 314 11 12 19 322 355 260 350 281 292 7 13 343 56 268 6 320 284 247 235 236 224
350 347 337 20 54 342 312 331 54 41 258 318 292 334 351 19 356 327 8 53 304 102 52 64 310 47 249 281 219 304 330 109 6 72 39 280 86 296 332 294 325 320 250 231 224
348 347 22 18 62 311 348 52 31 122 330 299 298 37 1 327 344 49 355 338 26 43 2 84 359 337 345 316 239 3 25 351 3 10 229 11 31 245 290 294 287 328 339 279 229
333 358 25 77 332 3 48 49 96 236 228 285 307 288 348 4 294 334 357 338 346 83 61 114 326 74 352 39 280 9 91 138 260 272 279 343 251 256 272 327 350 356 347 15 277
329 22 63 345 355 44 70 64 207 205 135 171 220 41 330 34 294 28 264 221 89 65 136 60 286 39 32 349 32 306 62 129 101 25 45 265 285 321 6 21 23 17 16 327 316
43 23 26 318 16 61 75 229 227 203 146 155 176 159 236 256 305 41 279 277 158 57 75 150 311 50 321 334 26 32 312 61 13 20 305 291 290 240 329 321 358 345 337 323 355
47 16 298 336 69 55 165 222 238 183 214 175 195 292 259 254 206 215 237 14 14 35 44 110 119 280 343 201 175 49 35 31 113 141 184 274 258 218 256 274 311 306 305 340 327
105 15 329 347 62 78 164 191 243 188 217 192 171 195 213 217 225 232 228 202 341 173 122 259 144 235 243 274 263 202 161 140 116 275 225 209 263 261 281 283 315 318 311 328 270
191 241 341 39 177 238 279 257 242 189 214 170 198 211 183 210 311 222 88 298 11 72 161 198 296 357 333 357 356 199 189 142 116 71 212 226 261 315 326 323 323 325 326 319 319
128 253 344 33 349 168 167 224 215 298 195 51 143 64 134 210 258 189 239 189 15 67 78 110 163 180 241 236 144 183 219 210 149 152 264 237 274 284 287 295 312 312 304 301 302
162 227 185 181 235 206 177 155 165 202 266 189 106 204 174 171 340 238 219 142 60 92 86 142 203 205 262 289 273 260 239 229 200 238 220 271 275 283 293 299 296 296 300 318 332
156 146 353 126 96 182 183 200 184 178 154 217 208 161 154 169 204 196 150 203 208 192 147 32 266 82 297 273 285 238 250 246 243 257 256 260 270 275 290 320 358 349 342 5 17
167 53 118 154 140 142 207 186 193 134 210 192 192 146 205 223 170 182 227 258 187 158 179 147 131 63 270 300 326 316 233 211 187 199 215 255 295 16 352 338 342 332 319 351 352